Date,TemperatureHighF,TemperatureAvgF,TemperatureLowF,DewpointHighF,DewpointAvgF,DewpointLowF,HumidityHigh,HumidityAvg,HumidityLow,PressureMaxIn,PressureMinIn,WindSpeedMaxMPH,WindSpeedAvgMPH,GustSpeedMaxMPH,PrecipitationSumIn
2014-1-1,8.0,3.3,-2.0,0.0,-4.4,-10.0,74,70,66,30.42,30.33,9,4,14,0.00
2014-1-2,11.0,6.0,-3.0,2.0,-1.4,-9.0,80,71,59,30.45,30.29,10,4,14,0.00
2014-1-3,18.0,4.6,-11.0,13.0,-0.9,-16.0,83,78,70,30.42,29.75,22,6,31,0.00
2014-1-4,32.0,23.7,14.0,27.0,16.2,-99.9,82,75,68,30.13,29.68,16,6,24,0.00
2014-1-5,14.0,3.7,-8.0,6.0,-5.7,-16.0,71,64,54,30.22,30.10,16,8,25,0.00
2014-1-6,-9.0,-13.9,-19.0,-17.0,-21.7,-28.0,74,67,59,30.18,30.09,19,8,27,0.00
2014-1-7,3.0,-7.4,-16.0,-7.0,-14.6,-22.0,77,70,60,30.28,30.16,14,2,14,0.00
2014-1-8,8.0,-1.8,-10.0,-2.0,-8.6,-15.0,81,72,60,30.52,30.26,8,2,10,0.00
2014-1-9,22.0,0.0,-13.0,18.0,-4.7,-18.0,86,80,71,30.55,30.14,10,2,12,0.00
2014-1-10,36.0,29.2,22.0,34.0,27.1,18.0,93,91,86,30.11,29.47,8,4,17,0.08
2014-1-11,35.0,31.0,29.0,33.0,26.8,-99.9,93,87,84,29.77,29.43,17,6,23,0.04
2014-1-12,40.0,32.8,25.0,33.0,27.6,22.0,90,82,68,29.77,29.54,14,5,23,0.00
2014-1-13,39.0,33.5,24.0,33.0,28.3,19.0,87,81,74,29.75,29.54,14,2,19,0.00
2014-1-14,33.0,25.9,16.0,31.0,22.7,13.0,91,88,83,29.93,29.50,16,6,26,0.06
2014-1-15,16.0,12.9,11.0,12.0,8.2,5.0,89,81,76,30.10,29.69,12,5,21,0.01
2014-1-16,32.0,23.3,11.0,29.0,18.6,6.0,89,82,70,29.73,29.41,18,7,24,0.00
2014-1-17,20.0,14.5,10.0,15.0,9.5,4.0,85,80,74,29.96,29.72,12,4,17,0.00
2014-1-18,16.0,10.1,6.0,12.0,4.7,-99.9,87,81,76,29.92,29.81,7,1,9,0.00
2014-1-19,33.0,24.0,6.0,28.0,18.5,3.0,88,80,70,29.83,29.48,15,4,17,0.00
2014-1-20,31.0,16.6,5.0,27.0,11.2,-4.0,87,79,64,30.27,29.65,15,4,20,0.00
2014-1-21,4.0,0.0,-6.0,-5.0,-7.4,-11.0,78,70,59,30.39,30.17,11,3,15,0.00
2014-1-22,10.0,3.9,-2.0,5.0,-2.6,-10.0,82,74,61,30.20,29.88,14,5,23,0.00
2014-1-23,6.0,-1.1,-7.0,-3.0,-8.6,-13.0,76,70,59,30.58,30.21,18,6,23,0.00
2014-1-24,28.0,12.6,-8.0,25.0,5.7,-14.0,90,74,63,30.44,29.40,14,7,22,0.00
2014-1-25,30.0,12.2,2.0,27.0,0.2,-99.9,90,61,51,29.83,29.40,23,8,36,0.00
2014-1-26,22.0,10.1,4.0,16.0,4.8,-4.0,86,79,64,29.83,29.35,22,6,33,0.05
2014-1-27,3.0,-5.8,-13.0,-3.0,-14.5,-19.0,77,65,54,30.40,29.83,18,7,24,0.01
2014-1-28,3.0,-6.5,-16.0,-8.0,-14.2,-21.0,79,69,55,30.37,30.14,9,4,14,0.00
2014-1-29,24.0,7.1,-7.0,13.0,-1.8,-13.0,79,67,52,30.14,29.83,16,4,22,0.00
2014-1-30,30.0,24.7,14.0,26.0,17.2,7.0,88,73,60,29.97,29.56,16,6,24,0.01
2014-1-31,14.0,6.2,0.0,7.0,-1.3,-5.0,81,71,60,30.17,29.96,9,2,17,0.01
2014-2-1,18.0,11.5,0.0,13.0,5.0,-99.9,84,77,70,30.14,29.97,5,1,8,0.03
2014-2-2,16.0,8.0,-4.0,7.0,1.3,-9.0,85,74,55,30.35,30.14,7,1,12,0.01
2014-2-3,19.0,6.5,-9.0,8.0,-0.9,-13.0,84,72,57,30.36,30.29,8,2,12,0.00
2014-2-4,18.0,12.6,6.0,11.0,6.5,0.0,83,76,71,30.46,30.26,9,2,13,0.00
2014-2-5,18.0,13.5,3.0,11.0,7.0,-2.0,85,75,66,30.44,30.23,14,6,21,0.00
2014-2-6,7.0,-0.1,-6.0,-3.0,-6.6,-10.0,83,74,61,30.44,30.29,9,3,19,0.00
2014-2-7,14.0,2.6,-7.0,0.0,-5.0,-11.0,83,71,51,30.31,30.23,12,2,16,0.00
2014-2-8,13.0,6.0,-7.0,9.0,1.5,-11.0,85,81,75,30.28,30.14,4,1,8,0.01
2014-2-9,16.0,8.5,0.0,8.0,2.1,-8.0,86,75,61,30.34,30.12,11,3,16,0.01
2014-2-10,10.0,0.3,-9.0,-2.0,-7.6,-13.0,81,68,56,30.48,30.33,9,2,13,0.00
2014-2-11,13.0,0.5,-11.0,0.0,-7.2,-15.0,82,70,55,30.53,30.33,9,2,12,0.00
2014-2-12,17.0,8.2,0.0,12.0,2.9,-6.0,86,78,71,30.33,30.02,8,2,11,0.05
2014-2-13,28.0,20.2,4.0,23.0,15.6,1.0,87,82,71,30.02,29.49,12,5,21,0.02
2014-2-14,22.0,15.1,7.0,12.0,7.5,0.0,83,72,61,29.99,29.66,12,6,16,0.01
2014-2-15,18.0,12.6,1.0,12.0,4.6,-99.9,85,73,64,30.09,29.97,8,3,11,0.01
2014-2-16,19.0,15.3,10.0,13.0,10.1,5.0,88,80,70,30.29,29.98,7,3,12,0.01
2014-2-17,24.0,20.7,15.0,21.0,17.3,11.0,90,86,82,30.26,29.72,20,4,24,0.14
2014-2-18,42.0,29.0,19.0,32.0,23.8,16.0,89,82,63,29.91,29.60,15,3,17,0.01
2014-2-19,44.0,35.7,27.0,29.0,26.0,22.0,81,68,50,29.95,29.66,11,4,20,0.00
2014-2-20,40.0,34.5,31.0,38.0,30.9,25.0,93,87,77,29.91,29.07,18,6,26,0.24
2014-2-21,35.0,23.4,18.0,31.0,16.3,11.0,85,74,60,29.75,29.12,17,9,28,0.01
2014-2-22,27.0,19.7,12.0,13.0,8.8,-99.9,75,65,52,30.10,29.76,11,5,19,0.00
2014-2-23,23.0,13.9,5.0,9.0,4.8,0.0,82,68,52,30.19,30.09,14,5,20,0.00
2014-2-24,20.0,12.4,4.0,7.0,3.9,-1.0,81,69,55,30.26,30.19,11,4,20,0.00
2014-2-25,13.0,8.8,1.0,4.0,-0.4,-6.0,84,66,51,30.26,30.14,19,6,20,0.00
2014-2-26,14.0,4.0,-7.0,9.0,-5.0,-12.0,85,66,48,30.26,29.60,14,6,34,0.00
2014-2-27,10.0,0.9,-7.0,6.0,-11.6,-16.0,82,55,38,30.19,29.66,27,6,29,0.00
2014-2-28,20.0,7.5,-8.0,15.0,-0.7,-16.0,86,68,57,30.19,29.97,10,2,16,0.02
2014-3-1,17.0,9.9,4.0,14.0,2.1,-99.9,86,73,61,30.41,30.08,12,6,18,0.01
2014-3-2,7.0,1.6,-2.0,-5.0,-12.0,-16.0,66,53,39,30.50,30.40,13,6,15,0.00
2014-3-3,14.0,3.4,-11.0,2.0,-8.3,-17.0,73,58,46,30.55,30.34,9,2,12,0.00
2014-3-4,20.0,14.6,10.0,11.0,8.1,2.0,84,75,64,30.34,30.21,7,1,8,0.15
2014-3-5,18.0,13.7,2.0,11.0,7.2,-3.0,83,75,69,30.51,30.29,10,3,14,0.01
2014-3-6,27.0,16.6,0.0,16.0,9.6,-4.0,85,74,61,30.48,30.04,9,3,15,0.00
2014-3-7,41.0,31.0,18.0,31.0,23.6,13.0,85,74,63,30.06,29.85,10,4,19,0.00
2014-3-8,34.0,27.3,19.0,28.0,18.1,-99.9,81,70,56,30.29,30.06,12,3,15,0.00
2014-3-9,39.0,28.3,16.0,32.0,20.9,11.0,83,74,61,30.23,29.74,13,4,19,0.00
2014-3-10,56.0,44.3,34.0,38.0,34.6,30.0,86,70,49,29.73,29.60,7,1,11,0.00
2014-3-11,43.0,40.0,34.0,36.0,33.5,28.0,89,78,68,29.85,29.68,10,2,13,0.04
2014-3-12,34.0,24.6,17.0,28.0,15.7,8.0,84,69,53,30.14,29.84,15,5,19,0.01
2014-3-13,38.0,25.9,15.0,33.0,18.9,6.0,87,74,68,30.14,29.75,13,3,18,0.00
2014-3-14,48.0,41.2,37.0,35.0,32.4,27.0,85,71,55,29.83,29.53,21,6,27,0.00
2014-3-15,36.0,30.9,24.0,26.0,19.2,-99.9,79,65,47,30.38,29.85,16,4,22,0.00
2014-3-16,24.0,17.2,9.0,18.0,8.0,-1.0,76,67,52,30.50,30.20,14,4,21,0.00
2014-3-17,34.0,23.0,13.0,22.0,12.1,-99.9,82,66,48,30.19,29.78,14,4,18,0.00
2014-3-18,46.0,36.0,27.0,33.0,29.1,23.0,86,76,59,29.86,29.75,10,4,15,0.00
2014-3-19,37.0,34.1,32.0,33.0,30.5,24.0,93,87,70,29.98,29.65,16,5,21,0.15
2014-3-20,42.0,34.9,30.0,27.0,23.6,-99.9,84,69,51,30.08,29.98,12,3,17,0.01
2014-3-21,41.0,31.7,28.0,30.0,25.2,23.0,83,77,65,30.05,29.92,15,3,19,0.00
2014-3-22,37.0,29.6,20.0,30.0,18.0,-99.9,81,65,46,30.40,29.90,17,9,24,0.00
2014-3-23,26.0,19.5,13.0,9.0,7.0,5.0,72,58,42,30.50,30.40,13,6,18,0.00
2014-3-24,34.0,24.0,15.0,25.0,14.2,8.0,87,67,45,30.41,30.05,13,4,24,0.00
2014-3-25,25.0,19.6,15.0,17.0,7.9,4.0,78,61,43,30.27,30.04,17,7,26,0.00
2014-3-26,36.0,24.3,12.0,25.0,14.0,6.0,80,65,53,30.29,29.91,13,5,21,0.00
2014-3-27,41.0,37.6,35.0,39.0,32.8,24.0,93,83,59,29.91,29.44,16,5,22,0.32
2014-3-28,42.0,35.2,32.0,37.0,29.8,26.0,93,81,64,30.23,29.45,15,5,25,0.27
2014-3-29,43.0,35.1,30.0,29.0,25.7,-99.9,86,72,56,30.33,30.23,9,2,12,0.01
2014-4-13,48.0,44.3,41.0,45.0,42.1,39.0,94,92,87,29.84,29.58,12,4,25,0.08
2014-4-14,41.0,31.7,26.0,38.0,27.8,21.0,93,86,77,30.08,29.55,15,8,23,0.01
2014-4-15,34.0,27.6,21.0,21.0,17.9,13.0,85,67,51,30.22,30.05,8,2,18,0.01
2014-4-16,48.0,37.7,28.0,33.0,27.1,21.0,78,66,53,30.27,30.08,23,7,29,0.00
2014-4-17,55.0,44.9,36.0,41.0,34.9,30.0,84,68,57,30.34,30.04,12,5,19,0.00
2014-4-18,54.0,42.1,31.0,35.0,30.3,27.0,85,65,40,30.42,30.32,8,2,13,0.00
2014-4-19,63.0,47.8,33.0,42.0,33.2,-99.9,80,60,44,30.44,30.21,13,6,19,0.00
2014-4-20,70.0,57.4,50.0,55.0,45.9,39.0,84,66,46,30.22,30.00,10,3,16,0.00
2014-4-21,69.0,59.5,50.0,57.0,51.2,37.0,90,75,48,30.00,29.84,22,2,27,0.00
2014-4-22,55.0,46.3,38.0,37.0,30.9,28.0,72,56,38,30.16,29.94,20,7,31,0.00
2014-4-23,54.0,42.2,31.0,32.0,29.1,26.0,87,62,39,30.22,30.08,11,2,14,0.00
2014-4-24,51.0,42.3,35.0,43.0,36.5,29.0,88,80,72,30.14,29.70,9,3,19,0.00
2014-4-25,64.0,51.8,43.0,45.0,40.1,36.0,91,68,35,29.90,29.70,13,5,25,0.00
2014-4-26,48.0,42.4,36.0,38.0,31.6,-99.9,80,67,60,30.11,29.90,13,4,16,0.00
2014-4-27,50.0,42.2,39.0,39.0,34.4,30.0,86,74,54,30.13,29.90,14,5,22,0.00
2014-4-28,46.0,44.1,42.0,41.0,38.7,35.0,89,81,72,29.91,29.68,16,6,22,0.00
2014-4-29,48.0,43.8,39.0,47.0,41.3,36.0,96,91,87,29.68,29.54,10,3,17,0.00
2014-4-30,50.0,46.4,42.0,46.0,42.0,38.0,94,85,72,29.78,29.65,11,4,20,0.00
2014-5-1,50.0,44.0,40.0,44.0,40.1,36.0,92,86,76,29.81,29.66,8,2,16,0.00
2014-5-2,51.0,46.4,43.0,44.0,41.8,39.0,92,84,68,29.82,29.68,8,2,12,0.00
2014-5-3,61.0,50.9,42.0,44.0,37.7,-99.9,93,65,39,29.91,29.67,22,6,27,0.00
2014-5-4,60.0,49.4,42.0,38.0,30.9,23.0,75,51,27,30.12,29.91,11,4,18,0.00
2014-5-5,57.0,48.1,42.0,41.0,36.7,33.0,78,65,49,30.14,30.02,9,2,17,0.00
2014-5-6,59.0,49.4,38.0,42.0,37.1,31.0,81,63,50,30.11,29.97,13,4,22,0.00
2014-5-7,48.0,47.5,47.0,38.0,37.0,36.0,72,68,64,29.97,29.95,1,0,9,0.00
2014-5-13,55.0,51.8,47.0,45.0,42.1,39.0,74,70,66,30.18,30.09,9,3,15,0.01
2014-5-14,57.0,49.3,41.0,42.0,38.1,34.0,86,67,43,30.27,30.09,10,2,13,0.01
2014-5-15,54.0,46.6,39.0,39.0,35.7,32.0,87,67,45,30.10,30.02,14,4,22,0.00
2014-5-16,51.0,44.5,36.0,38.0,32.1,29.0,89,63,45,30.11,30.05,8,2,14,0.00
2014-5-17,61.0,49.0,34.0,36.0,31.5,-99.9,88,56,33,30.14,30.07,9,2,16,0.00
2014-5-18,71.0,59.1,44.0,42.0,37.7,34.0,70,47,29,30.20,30.13,9,2,12,0.00
2014-5-19,62.0,53.6,48.0,50.0,40.0,-99.9,81,66,51,30.24,29.95,12,4,21,0.00
2014-5-20,84.0,67.4,56.0,66.0,56.0,-99.9,84,70,46,29.95,29.85,7,2,13,0.00
2014-5-21,81.0,68.5,55.0,64.0,53.6,42.0,93,64,26,30.06,29.85,15,4,25,0.00
2014-5-22,71.0,59.9,50.0,49.0,45.4,-99.9,85,62,42,30.20,30.05,11,3,17,0.00
2014-5-23,70.0,59.2,46.0,51.0,46.7,42.0,86,65,49,30.29,30.20,9,2,14,0.00
2014-5-24,76.0,62.4,46.0,50.0,44.1,-99.9,88,56,33,30.30,30.17,6,1,11,0.00
2014-5-25,82.0,68.4,49.0,54.0,49.5,45.0,86,54,33,30.19,30.02,6,2,12,0.00
2014-5-26,82.0,73.1,68.0,69.0,63.4,54.0,86,72,57,30.06,29.96,8,1,12,0.09
2014-5-27,80.0,69.9,62.0,69.0,64.4,57.0,92,83,66,30.01,29.91,7,1,12,0.01
2014-5-28,74.0,63.2,58.0,57.0,50.4,44.0,85,64,49,30.15,29.98,6,1,15,0.01
2014-5-29,82.0,66.9,53.0,59.0,54.1,48.0,85,65,43,30.21,30.13,4,1,10,0.00
2014-5-30,83.0,68.0,52.0,59.0,53.6,47.0,90,64,30,30.25,30.17,5,1,12,0.00
2014-5-31,86.0,71.0,57.0,59.0,51.3,-99.9,78,55,33,30.23,30.05,9,3,14,0.00
2014-6-1,86.0,72.3,64.0,70.0,62.8,55.0,93,73,54,30.09,29.87,13,4,19,0.03
2014-6-2,79.0,71.4,65.0,68.0,64.9,61.0,93,81,61,29.92,29.74,12,3,17,0.02
2014-6-3,75.0,67.5,59.0,60.0,55.1,50.0,83,65,49,30.00,29.79,14,3,19,0.03
2014-6-4,72.0,65.3,59.0,59.0,57.5,55.0,88,77,60,29.99,29.86,5,1,9,0.01
2014-6-5,77.0,66.6,54.0,55.0,52.5,49.0,91,64,41,30.06,29.96,6,1,8,0.00
2014-6-6,80.0,71.2,61.0,60.0,54.8,50.0,75,57,43,30.03,29.97,6,1,10,0.00
2014-6-7,81.0,67.0,58.0,61.0,53.5,-99.9,90,67,46,30.03,29.91,8,2,18,0.00
2014-6-8,73.0,63.8,56.0,58.0,50.0,43.0,91,64,35,30.12,29.96,9,3,17,0.01
2014-6-9,74.0,63.4,49.0,59.0,51.7,43.0,82,66,54,30.12,30.00,5,1,11,0.01
2014-6-10,70.0,64.3,56.0,57.0,52.4,48.0,75,66,54,30.03,29.91,8,1,11,0.00
2014-6-11,71.0,64.3,58.0,60.0,55.7,52.0,87,74,67,29.91,29.80,9,3,19,0.00
2014-6-12,73.0,62.9,51.0,62.0,53.4,47.0,94,73,50,29.92,29.78,16,3,18,0.00
2014-6-13,73.0,61.4,51.0,47.0,42.0,38.0,73,51,29,30.07,29.91,14,5,23,0.00
2014-6-14,77.0,64.0,50.0,52.0,45.1,-99.9,83,56,36,30.14,29.94,9,2,14,0.00
2014-6-15,82.0,71.0,60.0,65.0,57.0,47.0,75,62,50,29.99,29.76,15,5,28,0.00
2014-6-16,85.0,72.2,58.0,66.0,59.3,55.0,91,67,41,30.05,29.88,7,1,9,0.01
2014-6-17,84.0,73.9,66.0,69.0,65.8,63.0,92,77,56,29.96,29.73,12,2,17,0.05
2014-6-18,76.0,70.5,64.0,69.0,65.4,62.0,93,84,71,30.09,29.85,8,1,19,0.01
2014-6-19,74.0,66.9,63.0,67.0,62.9,60.0,92,87,78,30.18,30.04,8,2,15,0.00
2014-6-20,79.0,71.3,64.0,70.0,66.5,61.0,94,85,71,30.04,29.96,5,1,11,0.01
2014-6-21,78.0,64.5,61.0,72.0,59.3,-99.9,94,88,74,30.01,29.90,5,2,9,0.01
2014-6-22,79.0,71.6,64.0,69.0,65.7,62.0,94,82,67,29.97,29.85,4,1,8,0.00
2014-6-23,82.0,72.3,65.0,69.0,65.7,62.0,93,81,61,29.91,29.84,4,0,8,0.00
2014-6-24,83.0,73.7,64.0,68.0,64.8,61.0,94,76,49,29.96,29.89,6,1,11,0.01
2014-6-25,69.0,66.3,63.0,65.0,62.1,60.0,91,86,77,30.09,29.96,5,1,8,0.01
2014-6-26,80.0,68.3,60.0,66.0,60.6,57.0,91,78,59,30.14,30.03,6,1,11,0.00
2014-6-27,84.0,73.7,62.0,70.0,65.1,58.0,88,75,61,30.07,29.97,11,4,15,0.00
2014-6-28,84.0,74.9,69.0,73.0,65.0,-99.9,89,76,68,30.03,29.88,10,5,19,0.00
2014-6-29,82.0,73.9,65.0,70.0,67.0,63.0,93,80,64,29.95,29.86,7,3,13,0.00
2014-6-30,84.0,70.7,65.0,74.0,67.0,62.0,93,88,72,29.87,29.61,11,3,18,0.00
2014-7-1,77.0,69.5,63.0,65.0,62.3,60.0,93,79,64,29.75,29.63,8,2,15,0.00
2014-7-2,65.0,61.0,57.0,57.0,55.6,54.0,93,83,74,30.09,29.78,14,3,14,0.00
2014-7-3,74.0,63.6,48.0,57.0,51.8,45.0,93,68,45,30.24,30.08,6,1,11,0.00
2014-7-4,78.0,68.0,53.0,58.0,51.6,46.0,93,60,35,30.36,30.25,4,1,8,0.00
2014-7-5,76.0,65.2,58.0,62.0,53.3,-99.9,82,70,61,30.29,30.05,8,3,16,0.00
2014-7-6,78.0,71.4,65.0,73.0,66.6,59.0,91,85,77,30.05,29.70,4,1,13,0.00
2014-7-7,84.0,74.6,65.0,71.0,64.5,60.0,93,73,51,29.80,29.71,8,1,12,0.00
2014-7-8,75.0,67.4,62.0,63.0,59.8,56.0,93,78,53,29.86,29.65,12,4,20,0.00
2014-7-9,72.0,65.4,57.0,58.0,54.9,50.0,93,71,50,30.10,29.87,9,3,18,0.00
2014-7-10,78.0,66.3,53.0,62.0,56.9,50.0,92,74,51,30.22,30.11,6,2,10,0.00
2014-7-11,75.0,68.3,60.0,61.0,59.0,56.0,87,73,59,30.21,30.11,7,2,14,0.00
2014-7-12,76.0,67.9,64.0,71.0,63.1,60.0,92,85,76,30.12,29.89,8,1,17,0.00
2014-7-13,76.0,66.8,59.0,67.0,60.1,53.0,94,81,50,29.96,29.90,15,2,15,0.00
2014-7-14,72.0,61.6,54.0,60.0,52.8,48.0,91,74,50,29.93,29.87,9,3,21,0.00
2014-7-15,66.0,58.4,52.0,54.0,51.1,48.0,89,77,62,30.05,29.91,12,4,18,0.00
2014-7-16,72.0,60.1,47.0,54.0,49.9,45.0,93,71,48,30.10,30.01,4,1,9,0.00
2014-7-17,76.0,63.4,48.0,57.0,51.7,45.0,92,69,41,30.16,30.10,3,0,6,0.00
2014-7-18,77.0,66.0,54.0,62.0,57.0,51.0,90,74,56,30.21,30.11,5,1,10,0.00
2014-7-19,78.0,66.8,57.0,63.0,57.8,54.0,91,74,58,30.13,30.04,7,1,11,0.00
2014-7-20,80.0,70.3,58.0,66.0,61.7,55.0,91,75,60,30.09,30.00,5,2,14,0.00
2014-7-21,84.0,74.4,63.0,71.0,65.9,60.0,90,76,62,30.10,30.03,7,2,13,0.00
2014-7-22,90.0,78.1,71.0,77.0,70.4,65.0,89,78,63,30.07,29.93,7,2,16,0.00
2014-7-23,75.0,68.2,59.0,61.0,57.2,54.0,87,69,54,30.26,30.12,8,2,14,0.00
2014-7-24,77.0,66.1,52.0,60.0,54.8,49.0,92,69,50,30.24,30.04,5,1,6,0.00
2014-7-25,70.0,63.9,59.0,63.0,57.8,51.0,89,81,73,30.09,29.91,8,2,15,0.05
2014-7-26,80.0,67.5,61.0,72.0,62.8,58.0,92,82,73,29.94,29.82,5,0,8,0.01
2014-7-27,75.0,67.8,61.0,65.0,61.3,55.0,94,80,61,30.03,29.75,13,4,23,0.02
2014-7-28,72.0,62.5,53.0,58.0,53.2,50.0,89,73,55,30.18,30.03,7,3,14,0.01
2014-7-29,77.0,63.6,55.0,59.0,55.6,52.0,90,77,49,30.11,30.03,9,2,14,0.04
2014-7-30,75.0,63.2,54.0,59.0,55.9,52.0,93,79,54,30.12,30.05,5,1,8,0.01
2014-7-31,80.0,65.1,57.0,64.0,56.5,55.0,92,74,50,30.06,30.02,5,1,12,0.00
2014-8-1,82.0,66.2,58.0,65.0,59.3,55.0,92,80,51,30.17,30.06,5,1,15,0.00
2014-8-2,83.0,67.0,55.0,65.0,57.9,53.0,93,72,52,30.21,30.13,2,0,6,0.00
2014-8-3,82.0,69.2,60.0,70.0,63.6,57.0,92,83,61,30.19,30.08,7,0,11,0.00
2014-8-4,76.0,66.2,61.0,69.0,62.8,59.0,93,89,78,30.14,30.08,13,1,22,0.00
2014-8-5,77.0,69.0,62.0,64.0,62.0,60.0,94,79,61,30.14,30.09,5,1,8,0.00
2014-8-6,81.0,70.4,55.0,65.0,59.9,53.0,93,72,51,30.14,30.09,3,0,5,0.00
2014-8-7,80.0,68.6,57.0,60.0,57.6,54.0,89,70,48,30.17,30.09,4,1,10,0.00
2014-8-8,81.0,69.8,58.0,63.0,58.2,53.0,86,69,49,30.16,30.11,7,1,10,0.00
2014-8-9,80.0,69.3,59.0,63.0,58.1,53.0,89,70,47,30.19,30.13,4,0,13,0.00
2014-8-10,80.0,68.9,58.0,64.0,59.6,54.0,88,74,55,30.14,30.03,4,0,6,0.00
2014-8-11,82.0,68.1,60.0,65.0,60.9,57.0,91,79,56,30.03,29.85,8,1,15,0.06
2014-8-12,73.0,64.0,57.0,60.0,54.1,51.0,89,71,51,30.03,29.88,14,5,19,0.07
2014-8-13,78.0,65.3,53.0,63.0,55.9,50.0,90,73,51,30.10,30.02,8,2,14,0.00
2014-8-14,72.0,61.6,50.0,53.0,49.8,45.0,92,68,41,30.20,30.10,9,1,9,0.00
2014-8-15,79.0,64.6,48.0,64.0,55.9,45.0,91,75,55,30.13,29.97,4,0,7,0.00
2014-8-16,85.0,69.9,59.0,70.0,63.6,57.0,93,82,60,29.98,29.88,4,1,12,0.00
2014-8-17,75.0,67.2,60.0,64.0,60.2,56.0,91,79,65,30.08,29.99,5,1,10,0.00
2014-8-18,80.0,64.7,58.0,70.0,60.3,55.0,92,86,69,30.00,29.75,6,2,13,0.00
2014-8-19,79.0,69.7,63.0,67.0,64.1,61.0,94,83,65,29.80,29.70,8,2,16,0.00
2014-8-20,83.0,71.4,60.0,69.0,64.4,58.0,94,80,60,29.98,29.81,5,1,8,0.00
2014-8-21,75.0,69.2,65.0,71.0,66.2,62.0,93,90,86,30.00,29.91,5,1,12,0.00
2014-8-22,88.0,76.9,70.0,76.0,71.7,68.0,94,85,67,30.02,29.91,8,1,8,0.00
2014-8-23,78.0,71.8,71.0,74.0,68.8,68.0,94,88,84,30.06,29.97,6,1,10,0.00
2014-8-24,83.0,74.8,70.0,75.0,69.9,66.0,91,85,77,30.06,29.99,4,2,12,0.00
2014-8-25,79.0,71.9,67.0,72.0,68.3,64.0,93,88,76,30.09,29.99,16,2,22,0.00
2014-8-26,76.0,68.4,63.0,67.0,60.7,57.0,93,77,56,30.19,30.06,7,1,13,0.00
2014-8-27,75.0,66.6,60.0,62.0,59.0,56.0,90,77,58,30.23,30.14,5,1,8,0.00
2014-8-28,74.0,65.4,57.0,62.0,58.8,55.0,93,80,66,30.19,30.06,8,2,9,0.00
2014-8-29,84.0,72.5,63.0,74.0,66.3,58.0,91,82,68,30.05,29.84,13,3,16,0.00
2014-8-30,78.0,70.6,68.0,69.0,65.8,65.0,91,84,72,29.95,29.81,7,2,12,0.00
2014-8-31,82.0,72.2,62.0,70.0,65.8,60.0,94,81,63,29.97,29.82,6,1,12,0.00
2014-9-1,76.0,69.5,61.0,69.0,64.1,58.0,91,83,72,29.87,29.69,6,2,21,0.00
2014-9-2,78.0,66.3,55.0,63.0,59.1,53.0,94,79,50,29.98,29.87,7,1,12,0.00
2014-9-3,79.0,67.7,56.0,66.0,59.8,53.0,93,78,55,30.05,29.89,9,2,14,0.00
2014-9-4,81.0,74.7,67.0,72.0,68.1,63.0,90,80,69,29.95,29.85,12,4,22,0.00
2014-9-5,78.0,68.9,58.0,73.0,62.1,54.0,91,79,65,30.15,29.87,11,3,17,0.00
2014-9-6,73.0,59.9,50.0,57.0,51.9,47.0,93,75,50,30.24,30.15,8,2,14,0.00
2014-9-7,78.0,63.3,50.0,59.0,53.6,47.0,93,74,43,30.25,30.15,4,0,6,0.00
2014-9-8,73.0,65.0,54.0,59.0,55.6,51.0,90,73,53,30.17,30.01,7,2,15,0.00
2014-9-9,79.0,68.5,57.0,66.0,60.7,53.0,89,77,59,30.01,29.86,6,1,10,0.00
2014-9-10,74.0,63.3,48.0,69.0,59.5,43.0,93,87,81,29.96,29.50,14,5,30,0.00
2014-9-11,52.0,48.2,45.0,45.0,41.8,39.0,84,78,70,30.38,29.99,10,3,17,0.00
2014-9-12,48.0,44.2,42.0,43.0,40.6,39.0,92,87,82,30.47,30.34,6,2,10,0.00
2014-9-13,57.0,46.1,40.0,42.0,39.2,37.0,92,77,52,30.41,30.32,9,2,13,0.00
2014-9-14,65.0,53.9,43.0,50.0,45.0,39.0,88,73,55,30.36,30.16,8,1,13,0.00
2014-9-15,56.0,51.8,43.0,51.0,48.0,41.0,92,87,74,30.24,30.15,5,1,9,0.00
2014-9-16,64.0,49.5,37.0,48.0,41.9,35.0,94,78,50,30.27,30.11,5,0,11,0.00
2014-9-17,68.0,53.4,41.0,54.0,45.9,39.0,97,78,51,30.11,30.01,5,0,9,0.00
2014-9-18,62.0,52.8,47.0,54.0,48.7,44.0,91,86,74,30.24,30.08,5,1,9,0.00
2014-9-19,72.0,61.6,48.0,56.0,52.6,46.0,93,74,52,30.20,29.89,18,4,20,0.00
2014-9-20,73.0,63.0,59.0,65.0,58.6,55.0,91,84,74,29.91,29.74,6,1,22,0.00
2014-9-21,61.0,55.9,48.0,56.0,49.3,43.0,92,79,60,30.22,29.76,16,4,25,0.00
2014-9-22,68.0,51.9,38.0,53.0,44.1,36.0,93,79,57,30.32,30.22,7,1,12,0.00
2014-9-23,73.0,57.4,44.0,55.0,49.5,42.0,93,77,49,30.36,30.27,5,0,9,0.00
2014-9-24,71.0,60.5,50.0,58.0,52.6,47.0,91,76,54,30.41,30.31,6,1,10,0.00
2014-9-25,77.0,64.6,54.0,58.0,53.2,50.0,90,69,41,30.35,30.26,6,1,8,0.00
2014-9-26,77.0,63.1,51.0,59.0,53.6,48.0,93,74,46,30.34,30.25,4,0,6,0.00
2014-9-27,80.0,66.3,53.0,62.0,56.0,50.0,91,70,49,30.32,30.19,5,0,7,0.00
2014-9-28,80.0,64.5,54.0,63.0,56.2,51.0,92,77,51,30.24,30.10,3,0,5,0.00
2014-9-29,78.0,58.0,48.0,62.0,53.1,44.0,93,85,57,30.13,30.02,12,2,16,0.00
2014-9-30,50.0,46.1,42.0,46.0,41.6,38.0,89,84,80,30.15,30.09,9,1,12,0.00
2014-10-1,67.0,56.9,46.0,56.0,50.1,43.0,91,79,64,30.10,29.90,9,3,13,0.00
2014-10-2,68.0,62.7,58.0,64.0,58.3,54.0,91,86,79,29.91,29.62,6,1,12,0.00
2014-10-3,63.0,49.9,42.0,60.0,44.9,33.0,91,83,69,29.78,29.58,17,5,22,0.00
2014-10-4,47.0,41.0,36.0,40.0,35.2,31.0,91,79,69,29.73,29.64,12,2,22,0.00
2014-10-5,50.0,42.1,32.0,38.0,33.3,29.0,91,73,53,29.71,29.61,9,1,15,0.00
2014-10-6,55.0,47.2,38.0,40.0,36.5,32.0,91,68,42,29.64,29.57,9,1,18,0.00
2014-10-7,62.0,51.4,44.0,45.0,40.7,38.0,86,68,46,29.86,29.58,8,1,15,0.00
2014-10-8,61.0,48.2,34.0,40.0,35.9,31.0,91,65,42,30.08,29.86,18,3,24,0.00
2014-10-9,56.0,43.6,32.0,35.0,32.7,29.0,89,68,42,30.21,30.08,8,2,13,0.00
2014-10-10,55.0,43.9,32.0,38.0,33.8,29.0,91,70,37,30.28,30.19,6,1,9,0.00
2014-10-11,57.0,42.4,30.0,39.0,33.9,28.0,92,73,45,30.31,30.16,7,1,9,0.03
2014-10-12,61.0,49.0,34.0,47.0,39.1,31.0,88,70,45,30.16,29.92,7,2,14,0.01
2014-10-13,60.0,54.0,50.0,55.0,51.4,47.0,93,91,81,29.92,29.56,9,1,15,0.01
2014-10-14,59.0,53.2,50.0,57.0,50.4,46.0,94,90,85,29.79,29.51,11,4,27,0.01
2014-10-15,52.0,49.7,48.0,49.0,46.7,45.0,95,90,86,29.94,29.77,15,5,18,0.00
2014-10-16,64.0,53.9,48.0,51.0,47.8,45.0,92,81,56,29.91,29.59,6,1,8,0.00
2014-10-17,54.0,50.0,45.0,50.0,45.6,41.0,92,85,76,29.95,29.56,20,4,25,0.00
2014-10-18,50.0,43.4,34.0,42.0,36.7,30.0,89,77,55,30.25,29.95,10,4,18,0.00
2014-10-19,55.0,43.6,30.0,45.0,37.6,27.0,93,80,65,30.21,29.83,8,2,15,0.86
2014-10-20,55.0,49.5,41.0,45.0,42.6,38.0,91,78,62,30.09,29.82,12,3,18,0.36
2014-10-21,49.0,43.4,34.0,42.0,37.5,31.0,90,80,69,30.34,30.09,8,2,14,0.11
2014-10-22,56.0,41.0,27.0,42.0,33.9,24.0,93,78,51,30.42,30.26,6,1,12,0.34
2014-10-23,52.0,45.1,37.0,47.0,41.2,34.0,92,87,70,30.25,30.07,6,1,12,0.21
2014-10-24,59.0,52.0,47.0,53.0,48.6,45.0,94,89,75,30.10,29.92,4,0,7,0.01
2014-10-25,65.0,55.5,46.0,53.0,39.7,31.0,93,60,28,30.02,29.90,18,4,24,0.00
2014-10-26,62.0,49.1,35.0,38.0,31.6,27.0,78,53,28,30.08,29.86,6,1,10,0.00
2014-10-27,73.0,62.1,51.0,61.0,52.2,38.0,77,70,56,29.86,29.56,8,3,15,0.02
2014-10-28,63.0,49.7,44.0,57.0,40.9,36.0,85,72,59,29.94,29.60,13,5,25,0.00
2014-10-29,46.0,41.6,32.0,35.0,33.1,29.0,87,72,62,30.16,29.94,14,5,20,0.00
2014-10-30,33.0,31.6,31.0,30.0,28.6,28.0,90,89,88,30.16,30.14,0,0,0,0.00
2014-10-31,38.0,33.8,29.0,30.0,22.8,19.0,89,64,52,30.51,30.20,22,10,27,0.00
2014-11-1,42.0,31.5,23.0,27.0,22.9,18.0,82,71,53,30.53,30.42,5,1,8,0.00
2014-11-2,52.0,40.1,28.0,31.0,27.1,24.0,92,62,39,30.42,30.12,14,5,19,0.00
2014-11-3,56.0,48.5,39.0,51.0,36.3,26.0,88,63,50,30.13,29.86,10,3,15,0.13
2014-11-4,58.0,48.9,41.0,55.0,41.3,32.0,92,76,54,30.04,29.79,14,5,21,0.17
2014-11-5,49.0,42.4,33.0,42.0,34.8,28.0,87,75,58,30.14,29.81,8,2,12,0.02
2014-11-6,45.0,37.4,32.0,41.0,32.0,27.0,91,81,70,30.28,29.81,19,8,27,0.09
2014-11-7,43.0,37.1,32.0,33.0,28.9,27.0,85,73,54,30.25,29.77,11,3,16,0.03
2014-11-8,42.0,37.8,32.0,37.0,29.3,24.0,92,71,53,29.97,29.72,21,6,26,0.05
2014-11-9,46.0,38.5,32.0,34.0,31.4,25.0,89,76,59,29.92,29.76,8,2,15,0.03
2014-11-10,53.0,41.4,33.0,44.0,36.8,29.0,90,84,71,29.89,29.53,12,2,15,0.01
2014-11-11,37.0,32.1,25.0,34.0,27.6,18.0,92,83,72,30.19,29.64,22,8,25,0.04
2014-11-12,25.0,21.9,19.0,18.0,15.8,14.0,81,75,70,30.31,30.16,12,5,19,0.01
2014-11-13,26.0,23.2,20.0,18.0,16.6,15.0,83,75,64,30.33,30.29,12,5,19,0.00
2014-11-18,17.0,13.8,9.0,9.0,6.7,4.0,81,73,63,30.06,29.91,10,5,17,0.00
2014-11-19,25.0,19.8,16.0,17.0,13.2,9.0,86,75,65,29.98,29.75,16,5,25,0.00
2014-11-20,21.0,16.5,7.0,15.0,6.8,0.0,81,66,47,30.32,29.94,18,6,23,0.00
2014-11-21,31.0,19.1,4.0,18.0,7.6,0.0,82,62,45,30.43,30.10,11,3,16,0.00
2014-11-22,47.0,36.9,31.0,45.0,33.6,19.0,93,86,59,30.09,29.77,8,4,15,0.00
2014-11-23,49.0,47.6,45.0,47.0,45.4,43.0,93,92,89,29.76,29.18,13,4,17,0.25
2014-11-24,45.0,32.0,23.0,43.0,30.0,21.0,93,92,91,29.78,29.10,13,5,20,0.22
2014-11-25,23.0,20.2,15.0,21.0,17.5,12.0,91,89,88,30.21,29.80,6,2,13,0.07
2014-11-26,23.0,16.6,10.0,20.0,13.6,7.0,90,88,88,30.25,30.16,4,1,7,0.01
2014-11-27,22.0,15.0,4.0,20.0,11.5,1.0,90,86,82,30.43,30.25,10,3,15,0.00
2014-11-28,28.0,19.5,9.0,25.0,15.9,6.0,89,86,80,30.38,29.87,10,3,13,0.01
2014-11-29,42.0,35.4,28.0,39.0,32.4,25.0,92,87,83,29.85,29.51,8,3,16,0.01
2014-11-30,38.0,27.9,14.0,36.0,22.7,5.0,93,81,66,30.40,29.59,15,6,21,0.00
2014-12-1,13.0,8.1,4.0,4.0,-0.8,-3.0,83,67,55,30.72,30.42,13,4,21,0.00
2014-12-2,29.0,22.3,8.0,22.0,16.3,4.0,85,78,68,30.61,30.02,12,2,14,0.00
2014-12-3,30.0,23.9,19.0,20.0,14.9,10.0,87,69,49,30.39,30.02,16,3,18,0.00
2014-12-4,28.0,21.9,15.0,21.0,14.6,10.0,87,74,58,30.48,30.27,9,1,10,0.00
2014-12-5,35.0,31.8,25.0,32.0,28.1,21.0,89,86,80,30.36,30.19,5,1,10,0.00
2014-12-6,32.0,26.8,19.0,27.0,21.4,15.0,89,79,64,30.71,30.36,9,3,16,0.00
2014-12-7,34.0,27.6,19.0,26.0,21.0,15.0,87,77,59,30.69,30.24,10,3,14,0.00
2014-12-8,34.0,32.6,31.0,32.0,30.0,26.0,92,90,80,30.24,29.99,13,3,16,0.20
2014-12-9,35.0,30.7,26.0,30.0,26.4,22.0,91,84,74,30.47,30.18,12,4,19,0.01
2014-12-10,26.0,22.0,22.0,22.0,18.5,18.0,87,82,84,30.48,30.32,5,1,9,0.00
2014-12-11,29.0,22.5,19.0,24.0,19.5,16.0,90,86,79,30.33,30.24,8,2,16,0.00
2014-12-12,34.0,30.8,24.0,31.0,28.3,22.0,92,90,89,30.33,30.22,9,3,12,0.00
2014-12-13,42.0,37.5,33.0,40.0,35.4,31.0,93,93,90,30.23,30.07,6,1,11,0.00
2014-12-14,46.0,41.9,40.0,44.0,39.9,38.0,94,92,93,30.08,29.97,5,1,8,0.00
2014-12-15,44.0,43.2,41.0,42.0,41.2,39.0,94,94,94,29.97,29.69,7,1,10,0.06
2014-12-16,41.0,34.5,26.0,39.0,31.3,21.0,94,88,80,30.18,29.68,14,6,24,0.08
2014-12-17,26.0,22.2,18.0,21.0,17.1,14.0,85,80,76,30.32,30.18,15,6,19,0.01
2014-12-18,26.0,24.0,20.0,23.0,20.3,16.0,88,86,83,30.35,30.28,6,1,9,0.00
2014-12-19,27.0,24.4,21.0,23.0,20.0,18.0,88,83,74,30.36,30.28,3,0,6,0.00
2014-12-20,30.0,25.6,23.0,27.0,22.5,19.0,88,85,84,30.31,30.22,5,0,6,0.00
2014-12-21,35.0,33.0,30.0,32.0,29.9,27.0,92,88,86,30.23,29.99,16,6,19,0.00
2014-12-22,38.0,34.7,33.0,36.0,31.8,30.0,93,89,83,29.99,29.65,11,4,17,0.10
2014-12-23,42.0,39.0,37.0,40.0,36.7,35.0,94,92,89,29.78,29.57,7,2,14,0.27
2014-12-24,37.0,34.6,34.0,35.0,32.4,31.0,93,92,89,29.75,29.54,12,2,13,0.01
2014-12-25,39.0,35.1,32.0,34.0,31.0,28.0,89,85,79,29.97,29.64,10,3,17,0.00
2014-12-26,46.0,38.1,34.0,38.0,34.1,31.0,90,85,73,30.05,29.95,6,1,8,0.00
2014-12-27,43.0,33.7,24.0,41.0,30.2,19.0,93,86,79,30.16,29.87,15,4,26,0.02
2014-12-28,30.0,23.6,16.0,22.0,18.2,13.0,88,80,69,30.33,30.14,9,2,13,0.01
2014-12-29,22.0,16.7,7.0,16.0,9.6,2.0,85,74,57,30.60,30.33,12,5,15,0.00
2014-12-30,12.0,6.0,1.0,2.0,-4.0,-8.0,81,64,40,30.74,30.60,13,5,17,0.00
2014-12-31,19.0,8.6,-1.0,8.0,-0.2,-6.0,80,68,48,30.60,30.04,15,6,22,0.00
2015-1-1,28.0,20.4,14.0,19.0,13.1,6.0,81,73,64,30.15,29.89,12,4,17,0.00
2015-1-2,30.0,23.1,14.0,21.0,15.4,8.0,83,73,49,30.35,30.15,5,1,12,0.00